Timeline UpdatesTrip UpdatesNews PostsPvt PostsTravel TipsAdmin PostsConv PostsFollowed PostsChat RequestsBlog PostsPNR Posts

Disclaimer
Search
 
 
Thu Sep 18, 2014 15:08:38 ISTHomeTrainsΣChainsAtlasPNRForumGalleryNewsFAQTripsMembersLoginFeedback
No Recent News for this Train
Other Trains in the News **new
Latest...
.
Sat Feb 02, 2013 (04:11PM)
⇐ Return Journey: Train# 51188

51187/Bhusaval Katni Passenger (UnReserved)

Time-Table HAS CHANGED.
Sep 04 (5:35AM)
Change Departure Station:
Change Arrival Station:
Post a Train Travel TipPost a Train Travel Tip **new
Post a Comment/Question/Picture/VideoPost a Comment/Question/Picture/Video
Pantry/Catering
???
RSA - Rake Sharing
Rake/Coach Composition
Loco
BSL-ET: BSL/ET WAP-4 ET-KTE: ET/KTE WDM-3A
News    PNR    Forum    Time-Table    Availability    Fare Chart    Map    Arr/Dep History    Trips    Gallery    ΣChains    X/O    Timeline    
Travel Time: 16h 30m    65 halts    Distance: 579 km    Avg Speed: 35 km/hr
Type: Passenger
Zone: CR/Central
Departs @ 10:55
Platform# ???
SMTWTFS
Asirgarh Road/AGQ 
Arrives @ 03:25 +1 night
Platform# ???
SMTWTFS
Katni Junction/KTE 

65 halts. 71 intermediate Stations between Asirgarh Road and Katni Junction

Show ALL intermediate Stations  Show Old Time-Table

#CodeStation NameX/OArrivesAvgDepartsAvgHaltPFDay#KmSpeedElevZoneAddress
1BSLBhusaval Junction (8)  -09:30---1-63.437208mCRBhusaval 425201, Maharashtra
2DSKDuskheda (2)X  09:41-09:42-1m--1-56.747213mCRDuskheda Station, Maharashtra
3SAVSavda (2)  09:53-09:54-1m--1-48.048220mCRSavda, Maharashtra
4NBNimbhora (2)  10:05-10:06-1m--1-39.355229mCRJalgaon, Maharashtra
5RVRaver (2)  10:17-10:18-1m--1-29.154242mCRJalgaon, Maharashtra
6WGAWaghodaX  10:29-10:30-1m--1-19.244259mCRChorwad, Maharashtra
7BAUBurhanpur (2)X  10:44-10:45-1m21-8.960269mCRBurhanpur, Madhya Pradesh
8AGQAsirgarh Road (2)»  10:54-10:55-1m--10.068259mCRState Highway 27, Madhya Pradesh
9CDIChandni (2)X  11:04-11:05-1m--110.247276mCRNepanagar Rd, Madhya Pradesh
10NPNRNepanagar (2)  11:14-11:15-1m--117.350289mCRState Highway 27, Madhya Pradesh
11MWAMandwa (2)X  11:22-11:23-1m--123.160317mCRState Highway 27, Madhya Pradesh
12SXASagphata (2)  11:29-11:30-1m--129.166350mCRKhandwa, Madhya Pradesh
13DGNDongargaon (2)X  11:37-11:38-1m2136.891373mCRBorgaon, Madhya Pradesh
14KDKKohdad (2)X  11:43-11:44-1m--144.453344mCRState Highway 15, Madhya Pradesh
15BMABagmar (2)X  11:49-11:50-1m--148.890335mCRState Highway 27, Madhya Pradesh
16BRGJBargaon Gujar (2)X  11:54-11:55-1m--154.87316mCRKhandwa, Madhya Pradesh
17KNWKhandwa Junction (5)X  12:50 12:40-12:55 12:45-5m--159.918310mCRKhandwa, Madhya Pradesh
18MTAMathela (2)  13:05 13:09-13:06 13:11-1 2m--167.363322mWCRKhandwa, Madhya Pradesh
19TLVTalvadiya (2)  13:15 13:19-13:16 13:21-1 2m--175.779308mWCRKhandwa, Madhya Pradesh
20SGBJSurgaon Banjari (2)  13:26 13:30-13:27 13:32-1 2m--187.483298mWCRKhandwa, Madhya Pradesh
21CKKDCharkheda Khurd (2)  13:36 13:40-13:37 13:42-1 2m--198.658274mWCRKhandwa, Madhya Pradesh
22CAERChhanera (2)  13:45 13:49-13:46 13:51-1 2m--1105.468283mWCRChhanera, Madhya Pradesh
23BRUDBarud (2)X  13:56 14:00-13:57 14:02-1 2m--1115.564273mWCRKhandwa, Madhya Pradesh
24DRHIDagarhkeri (2)X  14:07 14:11-14:08 14:13-1 2m--1125.173274mWCRState Highway 15, Madhya Pradesh
25KKNKhirkiya (2)X  14:18 14:22-14:19 14:24-1 2m21136.048281mWCRSH 15, Madhya Pradesh
26KROKurawan (2)  14:27 14:32-14:29 14:34-2m--1142.444297mWCRSH 15, Madhya Pradesh
27BRIBhiringi (2)X  14:39 14:43-14:40 14:45-1 2m--1149.152294mWCRSH 15, Madhya Pradesh
28MUOMasangaon (2)  14:47 14:51-14:48 14:53-1 2m--1154.259303mWCRSH 15, Madhya Pradesh
29PALPalasner (2)  14:55 14:59-14:56 15:01-1 2m--1160.249296mWCRHarda, Madhya Pradesh
30HDHarda (3)X  15:06 15:10-15:07 15:12-1 2m--1167.660289mWCRHarda, Madhya Pradesh
31CRKCharkhera (2)  15:15 15:19-15:16 15:21-1 2m--1174.661298mWCRBarkalan, Madhya Pradesh
32TBNTimarni (2)X  15:24 15:28-15:25 15:30-1 2m--1181.771308mWCRTimarni, Madhya Pradesh
33CGOChhidgaon (2)  15:33 15:38-15:35 15:40-2m--1191.241309mWCRHarda, Madhya Pradesh
34PGLPagdhal (2)X  15:42 15:46-15:43 15:48-1 2m--1195.363317mWCRPagdhal, Madhya Pradesh
35BIFBhaironpur (2)X  15:51 15:55-15:52 15:57-1 2m--1202.663322mWCRSH 15, Madhya Pradesh
36BPFBanapura (2)  16:00 16:04-16:01 16:06-1 2m--1209.962314mWCRBanapura, Madhya Pradesh
37DKIDharamkundi (2)X  16:10 16:14-16:11 16:16-1 2m--1218.163314mWCRSH 15, Madhya Pradesh
38KTZKhutwansa (2)  16:19 16:23-16:20 16:25-1 2m--1225.542325mWCRSH 15, Madhya Pradesh
39DRADularia (2)O  16:29 16:33-16:30 16:35-1 2m--1231.113318mWCRItarsi, Madhya Pradesh
40ETItarsi Junction (7)XO  17:30-17:50-20m--1243.463329mWCRItarsi 461111, Madhya Pradesh
41GROGurra (2)  18:00-18:02-2m--1253.960327mWCRItarsi, Madhya Pradesh
42SQLSontalai (2)  18:11-18:13-2m--1262.946329mWCRItarsi, Madhya Pradesh
43BGTABagratawa (2)X  18:22-18:24-2m--1269.871338mWCRBagra Tawa, Madhya Pradesh
44GMDGuramkhedi (2)  18:35-18:37-2m--1282.860337mWCRGuramkhedi, Madhya Pradesh
45SGPSohagpur (2)X  18:47-18:49-2m--1292.960340mWCRSohagpur, Madhya Pradesh
46SXFSobhapur (2)  18:58-19:00-2m--1302.040338mWCRState Highway 22, Madhya Pradesh
47PPIPipariya (3)X  19:08 19:13-19:09 19:15-1 2m31310.665338mWCRPiparia, Madhya Pradesh
48BKHBankhedi (2)  19:24 19:33-19:25 19:35-1 2m--1330.071351mWCRBankheri, Madhya Pradesh
49JHTJunehta (2)X  19:33 19:40-19:34 19:42-1 2m--1335.976353mWCRState Highway 22, Madhya Pradesh
50SCKRSalichauka Road (2)X  19:44 19:50-19:45 19:52-1 2m--1346.183355mWCRGadarwara, Madhya Pradesh
51GARGadarwara (2)  19:57 20:02-19:58 20:04-1 2m11360.0111352mWCRNarsinghpur, Madhya Pradesh
52BNEBohani (2)  20:10 20:11-20:11 20:13-1 2m21372.970361mWCRNarsinghpur, Madhya Pradesh
53KFYKarapgaon (2)O  20:20 20:19-20:21-1 2m--1379.943363mWCRNational Highway 26, Madhya Pradesh
54KYKareli (2)X  20:34 20:33-20:35-1 2m11388.541361mWCRKareli, Madhya Pradesh
55NUNarsinghpur (2)  20:58-21:00-2m11404.358365mWCRNarsimhapur, Madhya Pradesh
56GPCGhatpindrai (2)  21:07 21:06-21:08-1 2m--1410.141366mWCRGhatpindra, Madhya Pradesh
57BELDBelkhera (2)  21:17 21:16-21:18-1 2m--1415.633367mWCRState Highway 22, Madhya Pradesh
58KKBKarak Bel (2)XO  21:26-21:28-2m11420.012375mWCRKarak Bel, Madhya Pradesh
59SRIDShridham (3)  22:38 22:43-22:40 22:45-2m21435.588373mWCRShridham, Madhya Pradesh
60BMRBikrampur (2)  22:53-22:54 22:55-1 2m--1447.287353mWCRBikrampur Dist Narsingpur., Madhya Pradesh
61BHTNBhitoni (2)  23:06 23:03-23:07 23:05-1 2m--1458.861377mWCRJabalpur, Madhya Pradesh
62BRGTBheraghat (2)X  23:19 23:18-23:20-1 2m--1471.916389mWCRBheraghat, Madhya Pradesh
63MMLMadan Mahal (3)  00:03 00:08-00:05 00:10-2m32485.08428mWCRJabalpur, Madhya Pradesh
64JBPJabalpur Junction (4)X  00:40 00:35-00:50 00:45-10m22488.331416mWCRJabalpur, Madhya Pradesh
65ADTLAdhartal (2)  01:01-01:03-2m--2496.559393mWCRJabalpur, Madhya Pradesh
66DOEDeori (2)  01:12-01:14-2m--2505.363392mWCRJabalpur, Madhya Pradesh
67GSPRGosalpur (2)X  01:24-01:26-2m--2515.874396mWCRJabalpur, Madhya Pradesh
68SHRSihora Road (2)X  01:35-01:37-2m--2526.975388mWCRJabalpur, Madhya Pradesh
69DDCEDundi (2)O  01:49-01:51-2m--2541.963415mWCRDundi, Madhya Pradesh
70SBDSleemanabad Road (2)XO  01:59 02:00-02:01-2 1m--2551.441434mWCRSleemanabad, Madhya Pradesh
71SNRRSansarpur (2)X  02:11-02:13-2m--2558.319436mWCRNational Highway 7, Madhya Pradesh
72NWRNiwar (2)  02:39 02:38-02:40-1 2m--2566.068412mWCRPipraundh, Madhya Pradesh
73MDRRMadhavnagar Road (2)X  02:47-02:49-2m--2573.99398mWCRMadhavnagar, Madhya Pradesh
74KTEKatni Junction (6)•  03:25----2579.2-387mWCRKatni, Madhya Pradesh
Scroll to Top
Scroll to Bottom